• In Deutschland
  • Länderverzeichnis
  • Für 7 Tage
  • Wassertemperatur
  • Satellitenkarten
  • Wetterkarte
  • Widgets
  • user-avatar
    Anmelden

    Stündliche Wetter Bad Abbach

    Heute, 27 April, Freitag

    Zeit Temperatur Niederschläge Wind Luftdruck Luftfeuchtigkeit
    00:00 +7°C° 0 mm 0 m/S 728 mmHg 68%
    01:00 +6°C° 0 mm 0 m/S 728 mmHg 69%
    02:00 +7°C° 0 mm 1 m/S 727 mmHg 70%
    03:00 +7°C° 0 mm 1 m/S 727 mmHg 71%
    04:00 +7°C° 0 mm 1 m/S 727 mmHg 72%
    05:00 +8°C° 0 mm 1 m/S 727 mmHg 71%
    06:00 +7°C° 0 mm 2 m/S 726 mmHg 70%
    07:00 +8°C° 0 mm 2 m/S 726 mmHg 68%
    08:00 +10°C° 0 mm 3 m/S 725 mmHg 63%
    09:00 +12°C° 0 mm 3 m/S 725 mmHg 57%
    10:00 +14°C° 0 mm 4 m/S 724 mmHg 51%
    11:00 +15°C° 0 mm 4 m/S 724 mmHg 49%
    12:00 +17°C° 0 mm 4 m/S 723 mmHg 46%
    13:00 +19°C° 0 mm 4 m/S 723 mmHg 44%
    14:00 +19°C° 0 mm 4 m/S 722 mmHg 45%
    15:00 +20°C° 0 mm 3 m/S 722 mmHg 47%
    16:00 +20°C° 0 mm 3 m/S 721 mmHg 48%
    17:00 +19°C° 0 mm 2 m/S 721 mmHg 56%
    18:00 +17°C° 0 mm 2 m/S 721 mmHg 65%
    19:00 +15°C° 0 mm 1 m/S 721 mmHg 73%
    20:00 +15°C° 0,1 mm 1 m/S 721 mmHg 77%
    21:00 +14°C° 0,1 mm 1 m/S 722 mmHg 80%
    22:00 +13°C° 0,1 mm 1 m/S 722 mmHg 83%
    23:00 +13°C° 0 mm 1 m/S 722 mmHg 86%

    Morgen, 28 April, Samstag

    Zeit Temperatur Niederschläge Wind Luftdruck Luftfeuchtigkeit
    00:00 +12°C° 0 mm 1 m/S 723 mmHg 89%
    01:00 +12°C° 0 mm 2 m/S 723 mmHg 92%
    02:00 +11°C° 0 mm 1 m/S 723 mmHg 93%
    03:00 +11°C° 0 mm 1 m/S 723 mmHg 93%
    04:00 +10°C° 0 mm 1 m/S 723 mmHg 93%
    05:00 +11°C° 0 mm 1 m/S 723 mmHg 89%
    06:00 +12°C° 0 mm 1 m/S 724 mmHg 86%
    07:00 +13°C° 0 mm 1 m/S 724 mmHg 82%
    08:00 +15°C° 0 mm 1 m/S 724 mmHg 74%
    09:00 +18°C° 0 mm 1 m/S 724 mmHg 66%
    10:00 +20°C° 0 mm 1 m/S 724 mmHg 58%
    11:00 +21°C° 0 mm 1 m/S 724 mmHg 54%
    12:00 +23°C° 0 mm 1 m/S 723 mmHg 50%
    13:00 +24°C° 0 mm 1 m/S 723 mmHg 47%
    14:00 +24°C° 0 mm 1 m/S 723 mmHg 48%
    15:00 +24°C° 0 mm 1 m/S 722 mmHg 48%
    16:00 +24°C° 0 mm 1 m/S 722 mmHg 49%
    17:00 +22°C° 0 mm 1 m/S 721 mmHg 57%
    18:00 +20°C° 0 mm 2 m/S 721 mmHg 64%
    19:00 +18°C° 0 mm 2 m/S 721 mmHg 72%
    20:00 +17°C° 0,2 mm 2 m/S 721 mmHg 76%
    21:00 +16°C° 0,2 mm 2 m/S 721 mmHg 81%
    22:00 +15°C° 0,2 mm 2 m/S 721 mmHg 85%
    23:00 +14°C° 0,1 mm 1 m/S 721 mmHg 87%

    übermorgen, 29 April, Sonntag

    Zeit Temperatur Niederschläge Wind Luftdruck Luftfeuchtigkeit
    00:00 +14°C° 0,1 mm 1 m/S 721 mmHg 89%
    01:00 +14°C° 0,1 mm 1 m/S 721 mmHg 90%
    02:00 +13°C° 0,3 mm 1 m/S 721 mmHg 91%
    03:00 +13°C° 0,3 mm 1 m/S 721 mmHg 92%
    04:00 +13°C° 0,3 mm 1 m/S 721 mmHg 93%
    05:00 +14°C° 0 mm 1 m/S 721 mmHg 92%
    06:00 +14°C° 0 mm 1 m/S 721 mmHg 90%
    07:00 +15°C° 0 mm 1 m/S 720 mmHg 88%
    08:00 +18°C° 0 mm 1 m/S 720 mmHg 80%
    09:00 +19°C° 0 mm 2 m/S 720 mmHg 72%
    10:00 +21°C° 0 mm 2 m/S 720 mmHg 64%
    11:00 +23°C° 0 mm 2 m/S 719 mmHg 59%
    12:00 +24°C° 0 mm 3 m/S 719 mmHg 53%
    13:00 +26°C° 0 mm 3 m/S 718 mmHg 48%
    14:00 +26°C° 0 mm 3 m/S 717 mmHg 47%
    15:00 +26°C° 0 mm 4 m/S 717 mmHg 47%
    16:00 +26°C° 0 mm 4 m/S 716 mmHg 46%
    17:00 +25°C° 0 mm 3 m/S 715 mmHg 53%
    18:00 +22°C° 0 mm 3 m/S 714 mmHg 61%
    19:00 +20°C° 0 mm 3 m/S 714 mmHg 68%
    20:00 +19°C° 0 mm 3 m/S 714 mmHg 69%
    21:00 +18°C° 0 mm 3 m/S 714 mmHg 70%
    22:00 +17°C° 0 mm 3 m/S 714 mmHg 70%
    23:00 +16°C° 0 mm 3 m/S 715 mmHg 70%

    30 April, Montag

    Zeit Temperatur Niederschläge Wind Luftdruck Luftfeuchtigkeit
    00:00 +14°C° 0 mm 4 m/S 715 mmHg 70%
    01:00 +14°C° 0 mm 5 m/S 716 mmHg 70%
    02:00 +13°C° 0 mm 5 m/S 717 mmHg 70%
    03:00 +12°C° 0 mm 5 m/S 718 mmHg 70%
    04:00 +10°C° 0 mm 6 m/S 719 mmHg 70%
    05:00 +10°C° 0 mm 5 m/S 720 mmHg 72%
    06:00 +9°C° 0 mm 5 m/S 720 mmHg 73%
    07:00 +9°C° 0 mm 5 m/S 721 mmHg 75%
    08:00 +10°C° 0 mm 5 m/S 721 mmHg 69%
    09:00 +12°C° 0 mm 5 m/S 721 mmHg 64%
    10:00 +13°C° 0 mm 5 m/S 722 mmHg 58%
    11:00 +14°C° 0 mm 4 m/S 722 mmHg 54%
    12:00 +15°C° 0 mm 4 m/S 722 mmHg 49%
    13:00 +17°C° 0 mm 4 m/S 722 mmHg 44%
    14:00 +17°C° 0 mm 3 m/S 722 mmHg 44%
    15:00 +17°C° 0 mm 3 m/S 722 mmHg 45%
    16:00 +18°C° 0 mm 3 m/S 722 mmHg 45%
    17:00 +16°C° 0 mm 2 m/S 722 mmHg 50%
    18:00 +15°C° 0 mm 2 m/S 722 mmHg 56%
    19:00 +14°C° 0 mm 1 m/S 722 mmHg 61%
    20:00 +14°C° 0 mm 1 m/S 722 mmHg 64%
    21:00 +13°C° 0 mm 1 m/S 722 mmHg 66%
    22:00 +12°C° 0 mm 1 m/S 723 mmHg 69%
    23:00 +12°C° 0 mm 1 m/S 723 mmHg 71%

    1 Mai, Dienstag

    Zeit Temperatur Niederschläge Wind Luftdruck Luftfeuchtigkeit
    00:00 +12°C° 0 mm 1 m/S 723 mmHg 74%
    01:00 +11°C° 0 mm 1 m/S 722 mmHg 76%
    02:00 +10°C° 0 mm 0 m/S 722 mmHg 77%
    03:00 +10°C° 0 mm 0 m/S 722 mmHg 79%
    04:00 +9°C° 0 mm 0 m/S 722 mmHg 80%
    05:00 +10°C° 0 mm 0 m/S 722 mmHg 77%
    06:00 +11°C° 0 mm 0 m/S 722 mmHg 75%
    07:00 +12°C° 0 mm 1 m/S 722 mmHg 73%
    08:00 +14°C° 0 mm 1 m/S 722 mmHg 66%
    09:00 +16°C° 0 mm 1 m/S 723 mmHg 60%
    10:00 +19°C° 0 mm 1 m/S 723 mmHg 54%
    11:00 +19°C° 0 mm 1 m/S 723 mmHg 54%
    12:00 +19°C° 0 mm 1 m/S 723 mmHg 55%
    13:00 +18°C° 0 mm 2 m/S 722 mmHg 56%
    14:00 +18°C° 0,1 mm 2 m/S 723 mmHg 57%
    15:00 +18°C° 0,1 mm 3 m/S 723 mmHg 58%
    16:00 +17°C° 0,1 mm 4 m/S 723 mmHg 59%
    17:00 +15°C° 0,1 mm 4 m/S 723 mmHg 64%
    18:00 +13°C° 0,1 mm 4 m/S 723 mmHg 69%
    19:00 +12°C° 0,1 mm 4 m/S 723 mmHg 74%
    20:00 +11°C° 0 mm 3 m/S 724 mmHg 76%
    21:00 +11°C° 0 mm 3 m/S 724 mmHg 77%
    22:00 +10°C° 0 mm 3 m/S 724 mmHg 78%
    23:00 +10°C° 0,6 mm 3 m/S 724 mmHg 81%

    2 Mai, Mittwoch

    Zeit Temperatur Niederschläge Wind Luftdruck Luftfeuchtigkeit
    00:00 +10°C° 0,6 mm 3 m/S 724 mmHg 84%
    01:00 +9°C° 0,6 mm 3 m/S 724 mmHg 87%
    02:00 +9°C° 1,1 mm 3 m/S 725 mmHg 88%
    03:00 +9°C° 1,1 mm 3 m/S 725 mmHg 89%
    04:00 +9°C° 1,1 mm 3 m/S 725 mmHg 90%
    05:00 +9°C° 0,9 mm 3 m/S 725 mmHg 91%
    06:00 +9°C° 0,9 mm 3 m/S 725 mmHg 91%
    07:00 +9°C° 0,9 mm 3 m/S 725 mmHg 92%
    08:00 +9°C° 0,3 mm 3 m/S 725 mmHg 91%
    09:00 +9°C° 0,3 mm 3 m/S 725 mmHg 90%
    10:00 +10°C° 0,3 mm 3 m/S 725 mmHg 89%
    11:00 +10°C° 0,1 mm 3 m/S 725 mmHg 88%
    12:00 +11°C° 0,1 mm 3 m/S 725 mmHg 87%
    13:00 +11°C° 0,1 mm 3 m/S 724 mmHg 86%
    14:00 +12°C° 0 mm 3 m/S 724 mmHg 85%
    15:00 +12°C° 0 mm 3 m/S 724 mmHg 84%
    16:00 +12°C° 0 mm 3 m/S 724 mmHg 83%
    17:00 +12°C° 0,1 mm 3 m/S 724 mmHg 85%
    18:00 +12°C° 0,1 mm 3 m/S 724 mmHg 86%
    19:00 +12°C° 0,1 mm 3 m/S 725 mmHg 88%
    20:00 +11°C° 0,1 mm 3 m/S 725 mmHg 89%
    21:00 +11°C° 0,1 mm 3 m/S 725 mmHg 90%
    22:00 +11°C° 0,1 mm 3 m/S 725 mmHg 91%
    23:00 +11°C° 0,1 mm 3 m/S 725 mmHg 91%
    Mehr zeigen